RADUGA 3 [-]

Last updated on Wed Jun 28 2023 01:02:57 GMT+0100 (British Summer Time)

1 10159U 77071A 23177.97343007 .00000173 00000+0 00000+0 0 9990 2 10159 6.8934 288.1684 0009302 239.9711 132.5050 1.00255572166164
UTC large
Height (km)
Speed (km/s)
/
Latitude / Longitude
Inclination (degrees)
Orbital Period (minutes)
Azimuth
Elevation
Range (km)
Doppler Factor

Next 0 passes for location: London (51.5072 / 0.1276)

Sorry there are no passes over London.